{"data":{"norad_id":63884,"intl_designator":"2025-094W","name":"STARLINK-33943","alt_names":[],"object_type":"PAYLOAD","status":"ACTIVE","operator":null,"country":"US","launch_date":"2025-05-10","launch_site_code":"AFWTR","launch_vehicle":null,"mission":null,"orbit_class":"UNKNOWN","rcs_meters":null,"size_class":null,"mass_kg":null,"dimensions":null,"purposes":["comms"],"wikipedia_slug":null,"has_3d_model":false,"image_url":null,"decayed_at":null,"tle_current":{"epoch":"2026-05-25T02:28:49.255104Z","epoch_age_seconds":69713,"freshness":"FRESH","line1":"1 63884U 25094W   26145.10334786  .00002112  00000+0  18475-3 0  9992","line2":"2 63884  70.0022  41.6149 0002780 268.2968  91.7872 14.98333229 58657","mean_motion":14.98333229,"eccentricity":0.000278,"inclination_deg":70.0022,"raan_deg":41.6149,"arg_perigee_deg":268.2968,"mean_anomaly_deg":91.7872,"bstar":0.00018475,"rev_number":5865,"period_min":96.106792009216,"perigee_km":570.11375469847,"apogee_km":573.97805639395,"semimajor_km":6950.1829055462,"source":"CELESTRAK","updated_at":"2026-05-25T13:38:20.173458Z"}}}